Temperature
10 12 12 13 12 13 13 13 13 13 11 11 12 12 12 12 11 11 10 10 9 9 9 9 9 9 9 9 9 9 9 9 9 9 9 9 9 9 9 9 9 9 9 9
11 12 12 11 11 11 11 12 12 12 10 11 11 12 12 12 11 10 10 10 9 9 8 8 9 9 9 9 9 9 8 8 8 8 8 8 8 8 8 8 8 8 8 8
12 12 10 10 10 11 11 12 12 11 11 10 10 12 13 12 11 10 9 9 9 8 8 8 8 8 8 8 8 8 8 8 8 8 8 8 8 8 8 8 8 8 8 8
11 10 9 10 10 11 11 11 10 10 11 12 11 12 14 12 11 11 10 9 9 8 8 8 8 8 8 8 8 8 8 8 8 7 7 7 7 7 7 7 8 8 8 8
11 9 9 10 10 10 11 10 10 10 10 11 11 11 13 12 12 12 11 9 8 8 8 7 8 8 8 8 8 8 8 7 7 7 7 7 7 7 7 7 7 7 7 7
10 9 9 10 9 9 9 9 9 9 10 10 11 11 13 13 13 12 11 9 8 7 7 7 7 7 7 7 7 7 7 7 7 7 7 7 7 7 7 7 7 7 7 7
9 9 8 8 9 9 9 10 10 10 10 12 11 10 12 13 11 11 10 9 8 7 7 7 7 7 7 7 7 7 7 7 7 7 7 7 6 6 6 6 7 7 6 7
9 10 9 8 9 9 9 10 11 11 12 12 10 10 13 11 9 8 8 8 7 7 6 6 7 6 7 7 6 7 6 6 6 6 6 6 6 6 6 6 6 6 6 6
10 10 8 8 8 9 9 9 10 10 9 10 11 12 11 10 9 9 8 7 7 6 6 6 6 6 6 6 6 6 6 6 6 6 6 6 6 6 6 6 6 6 6 6
9 8 8 7 7 8 9 9 9 9 9 10 11 12 12 10 10 9 8 8 7 6 6 6 6 6 6 6 6 6 6 6 6 6 6 6 6 6 6 6 6 6 6 5
7 7 7 7 8 8 7 7 8 9 9 10 11 12 11 10 9 9 8 7 6 6 5 5 5 5 5 5 5 6 6 6 6 6 6 6 6 5 5 5 5 5 5 5
6 7 7 8 8 8 8 8 8 8 8 8 10 11 9 9 8 8 7 6 5 5 5 5 5 5 5 5 5 5 5 5 5 5 5 5 5 5 5 5 5 5 5 5
5 6 6 7 7 6 6 6 7 7 7 8 9 10 8 8 7 7 6 6 5 4 4 4 4 4 4 4 5 5 5 5 5 5 5 5 5 5 5 5 5 4 5 5
5 6 6 7 8 7 6 6 6 6 7 8 8 9 9 8 7 6 6 5 4 4 4 4 4 4 4 4 4 4 4 4 4 4 4 4 4 4 4 4 4 4 4 4
5 5 5 6 6 6 6 6 6 6 7 7 8 8 8 7 6 6 5 4 4 3 3 3 3 3 3 4 4 4 4 4 4 4 4 4 4 4 4 3 4 4 4 4
4 4 4 4 5 5 5 6 6 6 6 7 7 7 7 6 5 4 4 4 3 3 3 3 3 3 3 3 3 3 3 3 3 3 3 3 3 3 3 3 3 3 3 3
3 3 3 4 4 4 5 5 5 5 6 6 6 6 5 5 4 4 3 3 3 3 2 2 2 2 3 3 3 3 3 3 3 3 3 3 3 3 3 3 3 2 3 3
2 3 3 3 3 3 6 5 5 5 5 5 5 5 4 4 3 2 2 2 2 2 2 2 2 2 2 2 2 2 2 2 3 3 3 3 2 2 2 2 2 2 2 2
2 2 2 3 4 5 5 3 3 3 4 4 4 4 3 2 2 2 2 1 1 1 1 1 1 1 1 2 2 2 2 2 2 2 2 2 2 2 2 2 1 1 1 1
2 2 2 2 3 4 4 3 2 3 4 3 2 3 2 2 4 4 1 1 1 1 1 1 1 1 1 1 1 1 1 1 1 1 1 1 1 1 1 1 1 1 1 1
1 1 1 2 3 4 2 1 2 3 3 1 1 1 1 2 2 1 0 0 -0 -0 0 0 0 0 0 0 0 0 0 1 1 1 1 0 0 0 0 0 0 0 0 0
1 1 1 2 2 2 1 1 2 2 0 -0 -0 -0 -0 -0 -1 -1 -1 -1 -1 -1 -1 -0 -0 -1 -0 -0 -0 -0 -0 -0 -0 -0 -0 -0 -0 -0 -0 -0 -0 -0 -0 -0
1 1 2 2 2 1 -0 -0 -1 -1 -1 -1 -1 -1 -1 -2 -2 -2 -2 -2 -2 -2 -1 -1 -1 -1 -1 -1 -1 -1 -1 -1 -1 -1 -1 -1 -1 -1 -1 -1 -1 -1 -1 -1
-0 -0 0 0 0 -0 -1 -2 -2 -2 -2 -2 -2 -2 -2 -2 -2 -3 -3 -3 -3 -2 -2 -2 -2 -2 -2 -2 -2 -2 -2 -1 -2 -2 -2 -2 -2 -2 -2 -2 -2 -2 -2 -2
-1 -1 -0 -0 -1 -2 -2 -2 -2 -2 -2 -3 -3 -3 -3 -3 -3 -3 -3 -3 -3 -3 -3 -3 -3 -3 -2 -2 -2 -2 -2 -2 -2 -2 -2 -2 -2 -2 -2 -2 -2 -3 -2 -2
-2 -2 -1 -1 -1 -2 -2 -3 -3 -3 -3 -3 -3 -3 -3 -4 -4 -4 -4 -4 -4 -4 -3 -3 -3 -3 -3 -3 -3 -3 -3 -3 -3 -3 -3 -3 -3 -3 -3 -3 -3 -3 -3 -3
Wind_Speed
2 4 6 7 7 4 4 5 7 6 4 6 10 12 11 8 7 7 6 6 5 5 4 3 2 2 2 2 2 3 3 3 2 2 3 2 2 2 2 2 3 4 5 6
3 7 6 4 4 4 6 6 7 6 3 5 9 13 11 9 8 7 6 5 5 3 2 2 1 1 1 1 2 2 3 3 3 3 3 2 2 2 2 2 3 4 5 6
7 2 3 5 5 6 7 8 7 6 6 5 8 9 8 5 6 6 5 5 4 3 2 1 1 1 1 1 2 2 2 3 3 3 2 2 2 1 1 2 3 4 4 5
6 4 4 6 7 7 7 6 6 6 6 5 4 7 7 5 6 6 5 3 3 2 2 2 1 1 1 1 1 2 2 3 3 4 4 4 3 3 3 3 3 3 4 5
5 4 5 7 6 6 3 1 4 6 7 7 7 7 7 4 7 6 4 3 2 2 1 1 1 1 1 0 1 1 2 3 4 4 4 5 4 3 2 3 3 4 4 4
5 3 4 3 1 4 2 1 1 3 4 6 8 8 7 5 6 4 4 3 2 2 1 1 1 1 0 1 0 1 2 2 3 4 4 5 5 4 4 4 4 4 3 4
4 4 3 2 2 3 3 2 3 4 5 6 3 6 8 3 3 3 3 3 2 1 1 1 1 1 1 0 0 1 1 1 2 4 4 5 5 5 5 5 5 4 4 4
5 5 6 5 5 5 6 6 5 5 6 5 3 7 4 0 1 1 2 2 1 0 1 1 1 1 1 1 1 1 1 1 2 3 3 4 4 4 4 5 4 5 4 4
5 5 1 3 3 4 5 6 4 4 5 7 7 6 5 2 2 2 1 1 1 1 1 1 1 1 2 2 1 1 2 2 2 3 3 3 3 3 4 4 4 4 4 4
3 5 3 1 2 2 4 3 4 5 5 8 8 8 5 3 3 2 2 1 1 1 1 1 1 2 2 2 2 2 2 2 2 2 3 2 3 3 3 3 4 4 4 4
3 4 3 3 7 7 5 5 6 5 5 6 7 5 0 1 2 3 2 1 1 1 1 2 2 3 3 2 2 2 2 2 1 1 2 2 2 2 3 3 3 4 3 4
2 3 6 7 4 5 7 7 7 6 6 6 7 6 3 1 1 1 1 1 1 0 1 2 2 3 3 3 3 3 2 2 2 1 2 2 2 2 2 2 3 3 3 4
1 3 4 4 3 2 4 4 6 5 4 7 9 7 3 2 3 3 3 2 1 1 1 2 2 3 3 4 4 4 3 3 2 1 1 1 1 2 2 2 3 3 3 3
3 6 9 11 7 4 7 8 9 8 7 10 13 13 8 6 6 5 4 3 2 1 1 1 2 3 3 4 4 4 4 3 2 1 1 1 1 2 2 2 2 2 2 3
3 7 9 11 10 9 12 13 13 15 15 14 15 14 11 8 7 5 4 3 2 2 1 2 2 3 3 4 4 4 4 3 2 1 1 1 2 2 1 1 1 1 2 2
3 5 6 9 9 10 13 14 15 16 15 16 16 14 8 5 4 4 4 3 3 2 3 3 3 3 4 4 4 4 4 4 2 2 2 2 2 1 1 1 1 1 1 2
4 4 5 7 7 8 10 10 10 10 9 9 11 8 4 4 4 4 4 4 4 3 3 3 4 4 4 4 4 4 4 4 3 2 2 2 2 2 2 1 1 2 2 1
8 7 5 5 5 8 4 2 4 7 7 5 5 5 5 5 5 4 3 3 3 4 4 4 4 4 4 4 4 4 3 3 3 3 2 2 2 2 2 1 2 2 2 1
10 7 5 4 7 9 3 2 2 5 6 3 5 5 4 3 3 2 1 2 3 4 4 4 4 4 4 4 3 3 3 3 3 3 3 3 2 2 2 2 2 2 2 2
4 7 6 5 6 7 2 4 5 4 5 2 5 5 4 2 4 3 2 3 3 3 3 3 3 3 3 3 3 2 3 3 3 3 3 3 2 2 2 2 2 2 2 2
2 4 7 8 7 5 3 5 2 3 3 5 5 4 4 4 4 3 3 3 3 3 3 3 3 3 3 3 2 2 3 3 4 4 3 3 2 2 2 2 2 2 2 2
4 4 5 5 6 3 4 2 1 4 5 5 4 4 3 3 3 2 2 3 3 3 3 3 2 3 3 3 2 2 3 4 4 3 3 3 3 2 2 2 2 2 2 2
4 3 2 3 2 2 1 1 3 4 5 5 4 4 2 2 3 3 3 3 3 3 3 3 3 3 4 4 3 2 3 3 3 3 2 3 3 2 2 2 2 2 1 1
2 2 3 3 3 3 3 4 4 4 4 5 4 3 2 2 3 3 3 3 3 4 4 3 3 3 4 4 4 4 4 3 3 3 3 3 2 2 2 2 2 2 2 1
4 2 3 4 4 3 2 4 5 5 5 4 4 4 3 3 3 3 3 4 4 4 4 4 3 3 4 5 5 5 4 3 3 3 3 3 3 2 2 2 2 2 2 2
3 4 5 5 3 3 5 5 4 4 4 4 4 4 4 3 3 3 3 4 4 4 5 5 5 5 5 5 6 6 5 4 3 3 3 3 3 2 2 2 2 3 3 3
Wind_Direction
177 203 215 214 217 249 229 241 259 266 276 267 266 274 276 272 262 270 276 282 281 280 285 282 268 236 211 199 206 190 186 174 171 181 185 181 187 184 181 187 189 188 186 184
194 228 230 212 204 210 221 244 263 274 269 270 279 279 274 261 252 256 264 274 282 284 299 285 281 212 188 189 197 190 189 178 181 194 197 203 201 205 195 189 194 191 189 191
221 232 170 188 202 215 233 241 256 273 294 262 284 278 255 240 236 247 252 259 273 274 277 277 272 251 224 224 217 203 202 191 186 186 180 167 167 172 186 202 205 204 196 193
237 227 202 211 223 222 248 244 248 262 273 269 264 285 264 244 243 244 245 252 266 277 286 298 291 259 245 240 228 214 205 193 188 184 186 186 194 207 221 215 211 203 202 200
230 205 212 226 234 217 243 244 246 255 257 271 248 257 270 241 252 243 229 232 241 252 268 280 291 273 239 233 272 240 201 196 189 189 196 201 211 218 216 210 209 203 203 205
249 230 228 226 216 192 163 162 243 227 236 254 240 238 268 233 245 236 213 215 219 228 253 281 348 17 62 61 211 245 202 193 189 195 201 207 213 212 207 211 209 209 206 210
245 221 201 176 162 173 200 223 248 231 227 247 199 236 257 256 225 224 220 210 204 214 286 341 7 0 354 311 228 229 201 193 201 205 208 214 216 212 211 213 212 210 209 213
241 236 199 203 216 209 214 221 233 253 260 270 230 241 257 92 190 223 222 200 185 261 340 340 344 336 328 315 289 268 244 222 209 211 220 226 225 218 220 219 219 215 217 220
237 243 194 224 253 209 198 220 251 260 270 267 249 252 266 202 216 212 198 202 225 292 323 333 343 343 340 326 295 279 253 240 223 217 220 226 229 227 228 227 223 221 223 225
250 261 246 230 209 241 247 203 195 214 237 254 256 249 251 212 218 207 217 250 267 301 325 336 342 347 342 333 312 294 271 256 232 220 221 229 230 234 235 224 223 226 225 221
253 243 251 231 222 228 202 203 220 228 245 250 261 254 3 266 228 208 223 257 275 273 325 339 346 348 347 338 332 314 292 287 269 234 229 234 233 232 233 229 230 230 226 219
241 242 253 253 272 275 234 225 212 229 239 243 261 264 72 14 326 263 272 285 275 258 344 354 357 357 356 348 340 323 302 288 282 255 232 236 238 225 229 241 240 231 225 223
232 228 253 250 215 187 218 220 231 253 250 239 247 252 108 10 330 313 299 292 270 252 347 356 360 2 353 346 339 328 315 298 281 270 250 242 241 231 230 240 245 236 226 224
250 235 239 250 264 249 253 248 240 233 240 250 248 261 275 302 305 301 295 287 268 256 299 339 347 351 347 341 337 330 324 311 294 264 246 246 253 249 248 247 242 240 232 223
233 249 254 267 273 263 259 255 246 240 242 252 261 265 277 292 294 289 282 273 258 262 300 323 327 331 335 336 335 334 333 326 308 276 257 256 261 256 253 253 250 241 232 223
256 255 270 272 265 263 265 260 250 246 248 254 265 269 286 296 295 287 277 261 250 269 297 312 317 319 322 324 325 326 327 325 311 292 282 283 275 258 257 264 257 242 235 225
230 233 247 266 279 278 261 257 248 246 243 249 256 265 292 287 282 276 268 255 255 278 293 299 300 302 308 313 313 313 315 317 306 294 293 291 278 272 269 266 259 250 234 223
227 233 240 262 269 248 263 337 254 243 242 248 266 281 272 278 283 276 262 252 278 291 295 299 303 304 307 310 310 310 314 314 314 308 304 306 299 292 291 279 272 271 258 242
221 220 224 232 249 262 272 319 285 241 250 269 275 285 304 323 292 258 273 305 296 292 292 298 303 302 303 308 312 313 319 325 332 329 323 316 299 286 283 275 270 274 267 261
208 216 225 228 243 253 290 339 315 239 236 312 300 289 293 292 275 288 316 318 318 318 316 314 312 312 312 315 315 313 320 325 324 323 317 313 304 285 273 267 271 281 266 261
188 207 223 234 243 255 355 338 319 225 298 336 311 298 278 263 291 331 331 324 327 329 334 333 326 325 325 323 318 317 326 324 322 323 320 317 313 305 292 281 276 268 264 257
217 216 215 225 236 250 16 25 295 315 337 330 329 325 307 318 339 344 337 333 338 343 348 347 344 341 340 340 329 323 326 329 330 331 330 329 327 327 314 300 292 278 262 255
233 240 246 228 248 357 360 320 334 341 330 332 333 333 340 347 347 350 344 342 343 349 350 348 350 350 352 352 345 333 332 336 339 343 338 336 337 335 325 311 301 297 283 273
264 293 253 259 268 311 330 348 350 347 337 333 339 351 11 9 2 358 352 353 354 353 350 352 358 355 351 350 349 347 341 339 345 346 342 340 340 340 339 338 323 307 294 282
283 272 261 261 289 321 333 343 338 345 354 3 12 13 19 25 19 16 11 5 2 359 358 360 2 1 352 352 354 352 349 348 351 350 347 344 342 336 343 349 343 322 315 300
268 259 258 264 279 279 294 316 335 346 353 360 10 13 14 20 20 19 13 8 7 5 2 3 2 357 353 355 356 354 349 348 352 350 348 344 338 335 336 344 356 13 347 344
Height
1513 1512 1508 1507 1508 1508 1507 1507 1506 1506 1509 1509 1503 1499 1497 1498 1498 1496 1495 1494 1493 1492 1491 1490 1489 1489 1489 1490 1490 1490 1491 1491 1492 1493 1494 1494 1495 1496 1498 1499 1501 1502 1503 1505
1511 1508 1507 1509 1511 1511 1509 1507 1505 1505 1508 1507 1501 1496 1493 1493 1493 1493 1492 1491 1490 1489 1488 1487 1487 1487 1487 1487 1488 1488 1488 1489 1489 1491 1492 1493 1494 1494 1496 1497 1498 1499 1501 1502
1504 1506 1508 1509 1509 1509 1507 1505 1503 1504 1506 1505 1503 1489 1487 1487 1489 1490 1489 1488 1488 1487 1486 1486 1485 1485 1485 1485 1485 1486 1486 1486 1487 1488 1489 1491 1492 1493 1494 1494 1495 1497 1498 1499
1505 1507 1508 1507 1506 1505 1502 1503 1505 1505 1503 1497 1500 1489 1478 1482 1484 1485 1485 1485 1485 1485 1484 1484 1483 1483 1483 1483 1483 1483 1483 1484 1485 1486 1486 1487 1488 1489 1490 1492 1493 1494 1495 1496
1502 1505 1505 1504 1503 1504 1502 1505 1505 1504 1501 1499 1496 1495 1476 1480 1479 1479 1481 1482 1482 1483 1482 1482 1481 1481 1481 1481 1481 1481 1481 1482 1482 1483 1484 1485 1486 1487 1488 1489 1490 1491 1492 1493
1503 1505 1504 1502 1504 1505 1506 1506 1504 1503 1500 1498 1488 1489 1474 1472 1472 1474 1478 1480 1480 1481 1481 1480 1480 1479 1479 1479 1479 1479 1479 1479 1480 1480 1481 1482 1483 1484 1485 1486 1487 1488 1489 1490
1500 1501 1503 1503 1503 1505 1504 1501 1499 1495 1494 1484 1487 1487 1473 1469 1473 1475 1476 1478 1479 1479 1479 1478 1478 1477 1477 1477 1477 1477 1477 1477 1478 1478 1478 1479 1480 1481 1482 1483 1484 1484 1485 1486
1497 1496 1498 1500 1498 1498 1499 1496 1495 1492 1483 1478 1488 1481 1468 1473 1475 1476 1476 1477 1478 1478 1478 1477 1477 1477 1476 1476 1475 1475 1476 1476 1476 1476 1476 1477 1477 1478 1478 1479 1480 1481 1482 1483
1494 1493 1498 1499 1498 1497 1496 1495 1493 1493 1492 1489 1475 1471 1470 1472 1474 1475 1476 1477 1477 1477 1477 1476 1476 1475 1475 1474 1474 1474 1474 1473 1473 1473 1474 1474 1475 1475 1475 1476 1477 1478 1479 1480
1496 1495 1495 1498 1499 1498 1496 1493 1496 1493 1489 1480 1469 1467 1463 1468 1470 1473 1475 1475 1476 1477 1476 1476 1475 1474 1474 1473 1473 1472 1472 1471 1471 1471 1472 1472 1472 1472 1472 1473 1474 1475 1475 1476
1499 1497 1496 1496 1493 1490 1495 1496 1491 1487 1484 1479 1471 1464 1466 1467 1469 1472 1474 1475 1475 1476 1476 1475 1475 1474 1473 1472 1471 1471 1470 1470 1469 1469 1469 1470 1470 1470 1470 1470 1471 1471 1472 1473
1499 1497 1493 1491 1491 1491 1489 1488 1488 1488 1486 1482 1474 1468 1469 1470 1471 1473 1474 1474 1475 1475 1475 1474 1474 1473 1472 1471 1470 1469 1469 1468 1468 1467 1467 1467 1467 1467 1467 1467 1468 1468 1469 1470
1499 1497 1493 1488 1492 1493 1491 1490 1490 1489 1486 1481 1476 1468 1470 1471 1472 1473 1474 1474 1474 1474 1474 1474 1473 1472 1471 1470 1469 1468 1467 1467 1466 1465 1465 1465 1465 1465 1465 1465 1465 1465 1466 1466
1497 1493 1490 1483 1478 1484 1487 1487 1488 1488 1484 1476 1470 1464 1466 1470 1471 1473 1473 1474 1473 1473 1473 1472 1472 1471 1470 1469 1468 1467 1466 1465 1464 1463 1463 1463 1462 1462 1462 1462 1462 1462 1463 1463
1496 1491 1487 1485 1484 1484 1483 1482 1483 1482 1477 1474 1465 1465 1466 1469 1471 1472 1472 1472 1472 1472 1471 1471 1470 1470 1468 1467 1466 1465 1464 1463 1462 1461 1460 1460 1460 1460 1460 1459 1459 1459 1460 1460
1495 1491 1489 1486 1483 1482 1480 1476 1475 1474 1473 1470 1468 1467 1469 1470 1471 1471 1470 1470 1470 1470 1470 1469 1468 1467 1466 1465 1464 1463 1462 1461 1460 1459 1458 1458 1457 1457 1457 1457 1456 1456 1456 1457
1493 1492 1489 1482 1481 1480 1474 1471 1471 1470 1469 1469 1467 1467 1469 1469 1469 1469 1469 1468 1468 1468 1468 1467 1466 1465 1464 1463 1462 1461 1460 1459 1458 1457 1456 1455 1454 1454 1454 1454 1453 1453 1453 1453
1490 1489 1488 1484 1482 1479 1467 1470 1470 1469 1469 1469 1468 1468 1468 1468 1468 1467 1467 1467 1467 1466 1466 1464 1463 1462 1462 1461 1460 1459 1458 1457 1456 1455 1454 1453 1452 1451 1451 1451 1450 1450 1450 1450
1487 1487 1486 1482 1475 1466 1468 1471 1471 1470 1467 1469 1468 1468 1468 1468 1466 1466 1465 1465 1465 1465 1463 1462 1461 1460 1459 1459 1458 1456 1455 1454 1453 1452 1451 1450 1449 1449 1448 1448 1448 1448 1447 1447
1484 1485 1483 1480 1475 1466 1466 1470 1469 1469 1465 1468 1468 1467 1467 1467 1464 1463 1464 1463 1463 1462 1461 1460 1459 1458 1457 1456 1455 1454 1452 1451 1450 1449 1448 1447 1447 1446 1446 1445 1445 1445 1445 1445
1482 1482 1481 1477 1472 1465 1472 1472 1469 1468 1466 1468 1467 1466 1466 1465 1465 1464 1462 1462 1461 1460 1459 1458 1457 1456 1455 1454 1453 1452 1450 1449 1448 1447 1446 1445 1444 1444 1443 1443 1442 1442 1442 1442
1478 1477 1477 1475 1472 1471 1474 1472 1472 1470 1469 1468 1466 1465 1464 1464 1463 1462 1461 1461 1460 1458 1457 1457 1456 1455 1453 1452 1451 1450 1448 1447 1446 1445 1443 1443 1442 1441 1441 1440 1439 1439 1439 1439
1477 1476 1473 1473 1473 1473 1474 1473 1473 1471 1469 1467 1466 1465 1463 1462 1461 1461 1460 1459 1458 1457 1456 1455 1454 1453 1452 1451 1449 1448 1446 1445 1444 1443 1441 1441 1440 1439 1438 1438 1437 1436 1436 1436
1477 1478 1476 1474 1473 1473 1473 1472 1471 1470 1469 1467 1465 1464 1463 1462 1461 1460 1459 1458 1457 1456 1455 1454 1453 1451 1450 1449 1448 1446 1445 1443 1442 1441 1440 1439 1438 1437 1436 1435 1435 1434 1434 1433
1477 1477 1474 1473 1473 1473 1472 1471 1470 1469 1467 1466 1464 1464 1462 1461 1460 1459 1458 1457 1456 1455 1454 1453 1452 1450 1449 1448 1446 1445 1443 1442 1441 1440 1438 1437 1436 1435 1434 1433 1433 1432 1431 1431
1478 1477 1475 1471 1472 1472 1471 1470 1469 1468 1466 1465 1464 1463 1462 1461 1460 1459 1458 1457 1456 1455 1453 1452 1451 1449 1448 1446 1445 1443 1442 1441 1440 1438 1437 1436 1434 1433 1432 1432 1431 1430 1429 1429